View from above orbital plane
|
View from above satellite
|
Ground track
|
The orbit data is extracted from the following two-line orbital elements,
1 17566U 87024A 21018.85023353 .00000617 00000-0 26840-4 0 9995
2 17566 82.5037 68.0226 0002910 347.9472 12.1693 15.20369741852740
Epoch (UTC): | 18 January 2021 20:24:20 |
Eccentricity: | 0.0002910 |
inclination: | 82.5037° |
perigee height: | 503 km |
apogee height: | 507 km |
right ascension of ascending node: | 68.0226° |
argument of perigee: | 347.9472° |
revolutions per day: | 15.20369741 |
mean anomaly at epoch: | 12.1693° |
orbit number at epoch: | 85274 |
The dashed part of the orbit path shows where the satellite is in the earth's shadow,
|
|